Weather History for Hot Springs, VA

Change the Weather History Date:

Saturday, February 16, 2013

  Actual Average Record
Temperature  
Mean Temperature 19 °F -  
Max Temperature 24 °F 36 °F 57 °F (2006)
Min Temperature 14 °F 21 °F 3 °F (2007)
Degree Days  
Heating Degree Days 46    
Moisture  
Dew Point 16 °F    
Average Humidity 84    
Maximum Humidity 100    
Minimum Humidity 63    
Precipitation  
Precipitation 0.00 in - - ()
Sea Level Pressure  
Sea Level Pressure 29.80 in    
Wind  
Wind Speed 11 mph (WNW)    
Max Wind Speed 20 mph    
Max Gust Speed 28 mph    
Visibility 10 miles    
Events Snow    
Averages and records for this station are not official NWS values.
T = Trace of Precipitation, MM = Missing Value Source: NWS Daily Summary

Daily Weather History Graph

Daily Weather History Graph

Search for Another Location

Airport:

Trip Planner

Search our weather history database for the weather conditions in past years. The results will help you decide how hot, cold, wet, or windy it might be!

Date:

Astronomy

Feb. 16, 2013 Rise Set
Actual Time 7:07 AM EST 5:59 PM EST
Civil Twilight 6:40 AM EST 6:26 PM EST
Nautical Twilight 6:10 AM EST 6:57 PM EST
Astronomical Twilight 5:39 AM EST 7:27 PM EST
Moon 10:26 AM EST (2/16) No Moon Set
Length of Visible Light 11h 45m
Length of Day
10h 51m
Waxing Crescent, 39% of the Moon is Illuminated
Feb 16
Waxing Crescent
Feb 17
First Quarter
Feb 25
Full
Mar 4
Last Quarter
Mar 11
New

Hourly Weather History & Observations

Time (EST) Temp. Windchill Dew Point Humidity Pressure Visibility Wind Dir Wind Speed Gust Speed Precip Events Conditions
12:15 AM 24.8 °F 13.4 °F 24.8 °F 100% 29.91 in 10.0 mi West 12.7 mph 16.1 mph N/A   Overcast
12:35 AM 24.8 °F 12.9 °F 24.8 °F 100% 29.89 in 10.0 mi WNW 13.8 mph 20.7 mph N/A   Overcast
12:55 AM 24.8 °F 12.4 °F 24.8 °F 100% 29.89 in 10.0 mi WNW 15.0 mph 20.7 mph N/A   Overcast
1:15 AM 24.8 °F 12.9 °F 24.8 °F 100% 29.89 in 10.0 mi WNW 13.8 mph 18.4 mph N/A   Overcast
1:35 AM 24.8 °F 14.6 °F 24.8 °F 100% 29.88 in 10.0 mi WNW 10.4 mph 17.3 mph N/A   Mostly Cloudy
1:55 AM 24.8 °F 14.6 °F 24.8 °F 100% 29.87 in 10.0 mi WNW 10.4 mph - N/A   Overcast
2:15 AM 24.8 °F 17.9 °F 24.8 °F 100% 29.88 in 10.0 mi WNW 5.8 mph - N/A   Overcast
2:35 AM 24.8 °F 16.9 °F 23.0 °F 93% 29.87 in 10.0 mi NW 6.9 mph - N/A   Overcast
2:55 AM 23.0 °F 12.4 °F 23.0 °F 100% 29.87 in 10.0 mi NW 10.4 mph - N/A   Overcast
3:15 AM 23.0 °F 11.7 °F 21.2 °F 93% 29.86 in 10.0 mi WNW 11.5 mph 16.1 mph N/A   Overcast
3:35 AM 23.0 °F 11.7 °F 21.2 °F 93% 29.86 in 10.0 mi NW 11.5 mph 16.1 mph N/A   Overcast
3:55 AM 21.2 °F 10.1 °F 19.4 °F 93% 29.85 in 10.0 mi WNW 10.4 mph 17.3 mph N/A   Overcast
4:15 AM 21.2 °F 10.9 °F 19.4 °F 93% 29.85 in 10.0 mi WNW 9.2 mph - N/A   Overcast
4:35 AM 21.2 °F 10.1 °F 19.4 °F 93% 29.85 in 10.0 mi NW 10.4 mph - N/A   Overcast
4:55 AM 21.2 °F 11.7 °F 19.4 °F 93% 29.85 in 10.0 mi WNW 8.1 mph - N/A   Overcast
5:15 AM 21.2 °F 12.6 °F 19.4 °F 93% 29.85 in 10.0 mi WNW 6.9 mph - N/A   Overcast
5:35 AM 21.2 °F 10.9 °F 19.4 °F 93% 29.85 in 10.0 mi WNW 9.2 mph - N/A   Mostly Cloudy
5:55 AM 21.2 °F 13.6 °F 19.4 °F 93% 29.85 in 10.0 mi WNW 5.8 mph - N/A   Mostly Cloudy
6:15 AM 21.2 °F 10.9 °F 19.4 °F 93% 29.85 in 10.0 mi WNW 9.2 mph - N/A   Overcast
6:35 AM 21.2 °F 12.6 °F 19.4 °F 93% 29.85 in 10.0 mi West 6.9 mph - N/A   Scattered Clouds
6:55 AM 21.2 °F 12.6 °F 19.4 °F 93% 29.84 in 10.0 mi WNW 6.9 mph - N/A   Scattered Clouds
7:15 AM 21.2 °F 14.9 °F 19.4 °F 93% 29.84 in 10.0 mi WNW 4.6 mph - N/A   Mostly Cloudy
7:35 AM 21.2 °F 10.9 °F 19.4 °F 93% 29.84 in 10.0 mi WNW 9.2 mph - N/A   Scattered Clouds
7:55 AM 21.2 °F 11.7 °F 19.4 °F 93% 29.84 in 10.0 mi West 8.1 mph - N/A   Scattered Clouds
8:15 AM 21.2 °F 11.7 °F 19.4 °F 93% 29.84 in 10.0 mi West 8.1 mph - N/A   Mostly Cloudy
8:35 AM 21.2 °F 13.6 °F 19.4 °F 93% 29.84 in 10.0 mi WNW 5.8 mph - N/A   Overcast
8:55 AM 21.2 °F 13.6 °F 19.4 °F 93% 29.84 in 5.0 mi NW 5.8 mph - N/A Snow Light Snow
9:15 AM 21.2 °F 13.6 °F 19.4 °F 93% 29.84 in 7.0 mi NNW 5.8 mph - N/A Snow Light Snow
9:35 AM 21.2 °F 14.9 °F 19.4 °F 93% 29.84 in 10.0 mi NW 4.6 mph - N/A Snow Light Snow
9:55 AM 21.2 °F 14.9 °F 19.4 °F 93% 29.83 in 10.0 mi NNW 4.6 mph - N/A   Overcast
10:15 AM 21.2 °F 12.6 °F 17.6 °F 86% 29.83 in 10.0 mi NNW 6.9 mph - N/A   Overcast
10:35 AM 21.2 °F 12.6 °F 17.6 °F 86% 29.83 in 10.0 mi NNW 6.9 mph - N/A   Mostly Cloudy
1:35 PM 21.2 °F 13.6 °F 15.8 °F 80% 29.77 in 10.0 mi WNW 5.8 mph - N/A   Scattered Clouds
1:55 PM 21.2 °F 10.9 °F 15.8 °F 80% 29.76 in 10.0 mi WNW 9.2 mph - N/A   Scattered Clouds
2:15 PM 23.0 °F 13.1 °F 15.8 °F 74% 29.76 in 10.0 mi WNW 9.2 mph - N/A   Mostly Cloudy
2:35 PM 23.0 °F 13.1 °F 15.8 °F 74% 29.75 in 10.0 mi NW 9.2 mph - N/A   Overcast
2:55 PM 21.2 °F 10.1 °F 14.0 °F 74% 29.75 in 10.0 mi NW 10.4 mph - N/A Snow Light Snow
3:15 PM 21.2 °F 8.9 °F 12.2 °F 68% 29.75 in 10.0 mi NW 12.7 mph 16.1 mph N/A   Overcast
3:35 PM 21.2 °F 10.1 °F 14.0 °F 74% 29.73 in 10.0 mi NW 10.4 mph 20.7 mph N/A   Overcast
3:55 PM 21.2 °F 8.3 °F 12.2 °F 68% 29.75 in 10.0 mi NW 13.8 mph 21.9 mph N/A   Overcast
4:15 PM 21.2 °F 8.3 °F 12.2 °F 68% 29.74 in 10.0 mi NW 13.8 mph 24.2 mph N/A   Overcast
4:35 PM 19.4 °F 4.5 °F 10.4 °F 68% 29.75 in 10.0 mi NW 17.3 mph 25.3 mph N/A   Overcast
4:55 PM 19.4 °F 5.5 °F 10.4 °F 68% 29.75 in 10.0 mi NW 15.0 mph 25.3 mph N/A   Scattered Clouds
5:15 PM 19.4 °F 3.6 °F 10.4 °F 68% 29.75 in 10.0 mi WNW 19.6 mph 26.5 mph N/A   Clear
5:35 PM 19.4 °F 4.1 °F 8.6 °F 63% 29.75 in 10.0 mi NW 18.4 mph 26.5 mph N/A   Clear
5:55 PM 17.6 °F 1.7 °F 8.6 °F 68% 29.75 in 10.0 mi WNW 18.4 mph 27.6 mph N/A   Scattered Clouds
6:15 PM 17.6 °F 2.2 °F 8.6 °F 68% 29.75 in 10.0 mi NW 17.3 mph 27.6 mph N/A   Scattered Clouds
6:55 PM 17.6 °F 1.7 °F 8.6 °F 68% 29.75 in 10.0 mi NW 18.4 mph 25.3 mph N/A   Clear
7:15 PM 17.6 °F 2.2 °F 8.6 °F 68% 29.76 in 10.0 mi NW 17.3 mph 24.2 mph N/A   Clear
7:35 PM 15.8 °F 0.9 °F 10.4 °F 79% 29.76 in 10.0 mi WNW 15.0 mph 24.2 mph N/A   Scattered Clouds
7:55 PM 15.8 °F -0.2 °F 10.4 °F 79% 29.75 in 10.0 mi WNW 17.3 mph 21.9 mph N/A   Mostly Cloudy
8:15 PM 15.8 °F 0.3 °F 10.4 °F 79% 29.75 in 10.0 mi WNW 16.1 mph 24.2 mph N/A   Mostly Cloudy
8:35 PM 15.8 °F -0.6 °F 10.4 °F 79% 29.74 in 10.0 mi WNW 18.4 mph 25.3 mph N/A   Scattered Clouds
8:55 PM 15.8 °F 2.1 °F 10.4 °F 79% 29.75 in 10.0 mi WNW 12.7 mph 26.5 mph N/A   Mostly Cloudy
9:15 PM 15.8 °F 2.1 °F 8.6 °F 73% 29.75 in 10.0 mi NW 12.7 mph 23.0 mph N/A   Mostly Cloudy
9:35 PM 14.0 °F -0.8 °F 8.6 °F 79% 29.75 in 10.0 mi WNW 13.8 mph 20.7 mph N/A   Scattered Clouds
9:55 PM 14.0 °F -1.4 °F 8.6 °F 79% 29.75 in 10.0 mi WNW 15.0 mph 20.7 mph N/A   Clear
10:15 PM 14.0 °F 0.5 °F 8.6 °F 79% 29.75 in 10.0 mi WNW 11.5 mph 21.9 mph N/A   Clear
10:35 PM 14.0 °F 2.0 °F 8.6 °F 79% 29.75 in 10.0 mi WNW 9.2 mph 19.6 mph N/A   Scattered Clouds
10:55 PM 14.0 °F 0.5 °F 8.6 °F 79% 29.74 in 10.0 mi WNW 11.5 mph 17.3 mph N/A   Mostly Cloudy
11:15 PM 14.0 °F -2.0 °F 6.8 °F 73% 29.73 in 10.0 mi WNW 16.1 mph 23.0 mph N/A   Scattered Clouds
11:35 PM 14.0 °F -2.5 °F 6.8 °F 73% 29.73 in 10.0 mi West 17.3 mph 20.7 mph N/A   Mostly Cloudy
11:55 PM 14.0 °F -0.8 °F 8.6 °F 79% 29.73 in 10.0 mi WNW 13.8 mph 23.0 mph N/A   Overcast